Theta_e
294 284 281 281 284 288 289 289 288 288 286 284 283 282 280 280 281 285 285 289 288 284 281 281 281 282 283 284 286 288 289 288 288 288 289 289 290 290 290 290 291 291 292 295 297 301 302 307 307 305 303 301 300 300 300 301 302 303 304 305 305 307 309 310 312 316 317 320 320 320 320 321 322 321 321 322 324 325 324 322 321 320 319 319 319 318
291 280 281 287 290 288 287 287 287 286 285 284 281 279 278 281 278 284 285 287 289 283 280 283 282 281 282 284 286 288 288 287 288 288 288 288 289 290 290 290 290 292 293 294 294 297 301 305 306 304 302 301 299 299 299 300 301 302 303 304 305 307 308 309 311 313 315 314 317 319 319 320 319 318 318 318 318 320 318 321 319 318 318 318 317 315
279 279 286 289 288 288 287 287 286 286 284 284 281 279 278 279 282 284 285 287 287 282 279 281 280 281 282 284 286 286 287 288 289 289 288 288 288 289 290 290 290 291 292 293 294 295 300 304 304 303 301 301 301 300 300 299 300 301 302 302 304 305 306 307 309 310 311 310 310 313 316 318 315 314 317 318 315 314 315 316 316 315 315 316 315 314
277 283 288 289 288 285 284 285 286 285 284 280 278 278 277 280 278 275 281 284 284 282 279 281 280 281 283 284 284 287 288 288 290 291 291 291 289 289 289 289 289 290 292 292 292 292 300 302 303 302 300 300 300 300 299 300 300 301 302 301 302 304 306 307 307 308 309 309 308 308 308 308 308 308 308 310 312 313 313 312 312 311 313 314 313 313
282 287 290 287 286 285 283 284 284 281 278 282 282 280 279 279 277 277 277 282 282 284 281 281 279 279 280 278 279 284 288 287 288 287 287 288 290 290 291 291 291 291 290 292 292 292 299 300 302 302 301 300 299 299 300 300 300 302 302 301 302 303 305 306 307 307 307 307 306 306 306 306 306 306 307 307 307 309 309 308 309 310 311 310 310 310
284 290 289 286 285 284 284 281 283 282 278 279 284 284 283 281 275 278 279 280 277 275 281 280 273 273 277 276 281 283 282 282 285 284 285 287 288 288 288 289 290 292 292 291 291 292 294 298 301 301 300 300 299 299 300 300 301 301 301 302 302 302 304 305 306 306 306 306 306 307 307 305 304 302 303 305 304 304 305 307 306 308 309 309 308 308
286 289 287 284 284 283 283 282 284 284 279 277 278 284 283 282 277 278 278 277 272 271 279 283 271 270 277 278 279 280 279 279 283 284 286 287 287 287 288 289 290 290 290 291 291 291 292 293 298 300 300 300 299 299 299 300 300 300 301 302 302 302 303 304 304 305 306 305 305 306 309 309 307 306 305 307 306 305 305 304 304 304 305 306 305 305
284 286 284 286 284 282 280 279 283 285 279 276 282 284 283 282 280 278 279 277 275 279 280 281 277 270 272 278 278 277 277 277 277 280 284 286 287 287 287 289 289 290 290 291 291 291 291 291 292 296 299 299 300 299 300 299 299 300 300 302 302 302 303 303 304 304 305 305 305 305 305 307 307 308 306 305 304 304 302 302 301 301 302 302 303 303
284 281 283 282 282 281 280 283 285 286 281 280 283 284 282 282 281 279 277 275 276 275 272 276 277 271 272 277 280 280 277 276 277 278 281 285 287 288 288 289 289 290 290 290 290 290 291 292 292 293 296 299 300 300 299 299 299 299 299 300 302 301 302 302 303 303 303 304 305 305 305 305 305 305 303 302 301 300 301 300 300 300 300 300 301 302
284 282 285 285 282 279 284 285 286 285 281 284 285 285 285 283 282 278 276 274 273 270 268 272 274 269 271 276 277 277 276 275 277 279 282 285 286 287 288 289 289 289 290 290 290 290 291 292 292 293 295 297 299 300 301 299 299 298 298 298 299 300 301 302 302 303 303 303 304 303 303 304 304 302 300 300 300 299 300 298 298 298 298 298 299 299
277 287 288 285 283 286 284 284 286 286 285 286 284 280 278 278 278 276 274 274 271 267 270 272 273 270 268 274 276 277 276 280 281 281 283 285 286 288 290 290 291 290 290 290 291 290 291 292 293 294 294 295 298 298 300 299 299 298 298 297 298 299 300 301 301 302 302 303 303 303 303 304 303 301 300 299 298 298 299 298 297 297 297 297 297 298
277 283 281 283 289 287 287 284 287 286 287 284 277 276 275 274 276 274 273 271 268 268 269 267 270 270 266 272 277 282 284 284 282 280 282 283 284 285 288 290 290 290 290 291 290 290 291 291 292 293 292 293 294 299 298 298 298 298 298 298 297 297 298 300 301 301 303 303 303 303 304 304 303 301 300 300 298 298 299 299 297 297 296 296 296 297
277 279 281 283 287 287 283 280 281 281 283 280 276 275 272 270 271 269 269 266 267 269 270 269 269 268 270 275 280 282 283 285 286 286 285 285 286 286 286 289 290 290 289 290 290 291 292 290 290 291 291 293 293 296 298 298 298 298 298 298 297 297 298 299 300 301 302 303 303 303 304 305 304 301 300 301 300 300 300 299 298 296 296 295 295 295
277 274 278 280 284 285 285 277 277 274 279 278 276 274 271 269 268 265 268 271 271 269 267 268 271 268 274 278 283 283 285 286 287 287 288 288 286 287 288 289 289 290 290 290 290 290 290 291 291 292 292 293 293 294 296 296 296 296 297 297 297 297 298 299 299 300 301 302 303 303 303 304 303 302 300 300 300 300 301 300 299 298 298 296 296 295
273 274 277 279 277 284 284 282 281 280 279 279 278 276 272 272 269 264 269 266 267 270 270 270 268 268 271 277 284 286 286 287 287 288 288 289 289 288 288 289 289 290 289 290 290 291 292 292 292 292 293 293 294 294 296 297 297 296 295 296 296 297 298 299 299 299 299 300 302 303 303 304 304 302 301 300 300 300 300 300 300 300 300 299 298 297
274 274 277 282 282 285 282 286 287 282 280 280 278 277 272 271 276 270 271 268 268 268 268 266 269 274 277 283 287 288 286 286 287 288 288 288 288 288 288 288 289 290 291 291 291 292 292 292 292 292 292 293 293 294 295 296 297 297 297 296 296 297 297 298 299 299 299 299 301 302 302 303 303 302 302 301 300 299 299 298 298 298 299 299 299 298
273 272 276 282 284 279 283 286 285 285 272 278 278 271 275 278 275 271 272 271 270 268 267 274 274 277 282 284 286 287 285 284 285 286 286 287 288 288 288 289 289 290 290 292 292 292 292 292 292 293 293 293 293 293 294 296 297 297 297 296 296 296 297 298 298 299 299 299 300 301 302 302 302 301 301 300 300 299 298 298 298 297 297 297 297 296
276 273 273 278 277 279 285 285 285 284 280 277 272 276 279 279 275 273 268 270 269 267 269 274 271 275 276 274 281 282 282 283 283 284 286 287 287 287 288 289 290 291 291 292 292 293 293 293 293 293 293 294 294 295 295 296 297 297 297 297 296 296 296 297 298 298 299 299 299 300 301 302 302 302 301 301 300 299 298 297 297 297 296 295 295 295
281 273 273 274 279 281 285 284 281 285 285 279 278 279 275 271 269 274 271 264 264 264 268 271 275 276 276 277 280 280 282 283 284 285 285 286 287 287 288 289 289 290 291 291 291 291 292 292 293 293 293 294 294 295 295 296 297 297 297 297 297 296 297 297 298 299 299 299 299 300 300 300 301 302 301 301 300 298 297 297 296 296 296 296 294 294
281 274 273 275 279 279 279 279 273 277 282 282 283 277 280 275 273 271 271 271 271 265 266 266 273 272 279 279 281 282 283 284 285 285 285 285 287 287 287 288 289 289 290 291 291 291 292 292 292 293 293 294 294 294 295 295 296 296 297 296 296 297 297 297 297 298 298 298 298 298 299 300 301 301 301 300 299 298 297 297 296 296 295 294 294 293
277 280 271 274 282 280 274 279 276 278 276 274 275 272 275 274 277 275 274 271 269 267 267 267 267 273 280 286 285 284 284 284 284 285 286 286 287 288 288 289 289 289 289 289 290 290 291 290 290 290 291 292 293 293 294 295 295 296 296 296 296 296 296 296 297 297 298 298 298 297 297 299 300 300 300 299 299 298 297 296 296 296 295 294 293 293
277 276 273 275 276 275 277 282 281 281 281 277 276 275 277 275 271 268 268 277 272 269 267 267 268 275 283 288 287 286 285 286 286 286 286 287 287 288 290 288 289 289 289 289 289 289 290 289 290 290 289 290 290 291 291 293 294 294 295 296 296 296 296 296 296 297 297 297 297 297 297 298 299 300 300 299 298 297 297 296 296 295 294 293 293 292
281 279 277 272 275 277 280 284 284 284 285 281 279 276 279 277 275 271 266 269 271 273 274 271 268 273 282 283 285 284 286 285 286 286 287 288 287 287 288 288 288 288 288 289 289 289 289 289 289 290 289 289 290 290 290 290 292 293 293 294 295 295 295 296 296 297 297 297 296 296 296 297 298 300 299 298 298 297 296 296 295 295 294 293 292 292
288 277 275 276 279 281 281 282 280 280 282 280 281 281 280 277 278 276 274 273 271 270 270 270 267 274 283 284 284 285 286 286 287 287 283 282 286 287 287 287 288 288 288 289 289 289 289 288 288 288 288 290 290 289 290 290 291 291 291 292 293 294 295 295 296 296 296 296 296 296 296 296 297 298 298 298 297 296 296 296 295 294 293 293 292 291
278 280 278 274 273 275 277 279 277 279 279 277 278 281 282 281 280 279 277 274 271 274 273 271 268 274 285 286 285 286 285 285 286 287 287 284 285 288 288 288 288 288 287 287 287 288 288 287 288 289 289 289 289 289 289 290 290 289 290 290 291 292 293 295 295 295 296 295 295 295 295 295 296 297 297 297 297 296 295 294 294 293 293 292 291 291
281 280 277 272 270 268 268 268 270 272 276 278 280 281 281 280 279 277 272 274 270 273 277 273 273 279 284 285 285 285 285 285 286 286 287 288 287 288 288 288 288 287 288 287 288 288 289 289 289 288 288 288 289 289 289 288 288 289 290 290 291 291 292 293 294 295 295 295 294 294 293 294 293 295 296 296 296 295 294 293 293 293 292 292 291 290
280 281 279 278 276 274 276 276 278 281 277 274 277 279 280 281 281 280 276 273 271 273 274 276 277 278 280 283 284 285 285 284 285 287 288 288 287 287 288 288 288 288 287 288 287 288 288 287 288 288 288 288 288 288 288 287 288 288 288 289 290 290 291 292 293 293 293 293 292 292 292 292 292 293 295 295 295 295 294 293 292 292 292 291 291 290
279 276 278 278 278 279 279 276 280 280 277 278 277 277 280 280 280 279 276 273 278 273 271 278 279 277 279 282 284 284 285 286 287 287 287 286 286 287 287 286 289 287 286 286 286 286 286 286 286 286 286 286 287 287 287 287 287 287 287 287 287 288 288 291 290 290 290 290 291 291 291 292 291 292 294 295 294 293 292 292 291 291 291 290 290 290
280 276 278 278 279 280 281 280 280 280 279 279 279 279 278 280 280 277 277 279 279 275 273 278 279 278 280 283 285 286 286 286 287 286 287 287 288 288 287 286 286 286 286 286 286 286 285 285 285 285 285 286 286 286 286 285 285 284 284 284 284 285 287 287 288 288 289 290 290 290 289 288 290 292 293 293 292 292 291 290 290 290 290 290 289 289
281 277 277 280 278 279 280 280 281 279 278 279 278 279 279 279 279 279 279 280 279 278 280 280 279 279 282 284 286 287 287 285 286 288 288 288 287 287 286 286 286 286 285 285 285 285 285 285 285 285 285 285 286 285 284 284 283 283 283 284 284 285 285 286 286 288 289 290 291 290 290 290 291 292 293 292 291 291 290 290 289 289 288 288 289 289
281 277 282 280 276 276 278 279 280 279 279 277 278 279 279 280 280 280 280 280 280 279 280 280 279 279 284 286 286 287 287 287 287 286 287 287 288 287 287 286 285 285 285 285 285 285 285 285 285 285 285 285 285 285 284 284 283 283 283 283 284 284 284 285 285 286 288 290 290 290 290 290 290 291 291 291 291 290 289 289 288 288 288 287 287 287
282 277 280 279 275 274 277 278 278 279 278 277 277 277 277 277 276 278 278 280 279 278 279 279 277 278 283 286 286 287 286 286 285 286 287 287 287 287 286 286 285 285 285 285 285 285 285 285 285 284 285 284 284 284 283 283 283 284 285 286 285 284 284 285 285 286 288 289 289 290 290 290 290 291 291 290 290 289 289 288 288 287 287 286 286 286
281 278 275 277 273 273 277 278 277 276 275 273 274 277 278 278 279 280 280 281 281 282 278 276 277 283 284 286 284 285 286 286 286 287 287 286 287 287 286 285 285 285 285 285 285 285 285 285 285 285 285 283 284 284 283 284 284 285 286 286 287 286 285 285 285 286 288 288 289 288 289 289 290 290 290 289 289 288 288 287 287 286 286 286 286 286
281 279 276 279 272 273 274 274 274 272 268 271 281 282 280 278 278 277 278 279 281 281 280 282 283 284 284 285 284 285 285 286 287 289 289 289 287 285 285 285 285 285 285 285 285 285 285 287 286 286 285 285 284 283 283 284 285 286 286 287 287 287 287 287 287 288 288 288 288 288 288 288 289 289 289 288 288 287 287 286 286 286 286 286 285 285
279 279 277 279 274 272 273 274 271 267 270 280 281 282 282 282 281 280 280 281 281 282 282 281 282 283 284 285 286 286 287 289 289 288 288 288 286 286 286 286 286 286 286 285 285 285 286 287 286 285 284 283 283 283 282 283 285 286 286 286 286 286 286 287 287 287 287 287 287 287 287 288 288 288 288 287 287 286 286 286 285 285 285 285 285 284
278 278 278 276 276 274 270 272 266 269 277 279 281 280 282 282 281 280 278 281 282 282 282 281 282 284 285 285 286 287 287 288 287 287 288 288 288 287 287 287 287 286 286 286 286 285 286 285 285 285 284 285 284 283 283 283 285 285 285 286 286 286 286 286 286 286 286 286 287 287 287 288 288 287 286 286 286 286 285 285 285 284 284 284 284 285
281 280 279 274 278 270 271 271 272 278 277 279 277 278 279 277 278 277 274 278 281 283 283 282 283 284 285 286 286 287 287 285 283 286 288 288 287 287 288 288 288 287 287 286 286 286 287 287 285 285 284 284 284 284 283 283 285 285 285 285 285 285 285 285 285 286 286 286 286 286 287 287 287 286 286 286 285 285 284 284 284 284 284 284 284 283
283 278 279 275 274 276 272 270 270 270 268 274 280 281 282 282 281 280 276 278 283 284 284 283 283 284 284 285 285 285 284 282 280 283 287 285 287 288 287 287 287 286 287 286 286 285 285 285 285 284 285 284 283 284 284 284 285 285 285 285 285 285 285 285 285 286 286 286 286 286 286 286 286 286 285 285 285 284 284 284 284 284 284 284 283 282
283 283 281 277 275 274 272 269 270 268 272 278 279 281 281 282 281 280 276 275 281 285 286 286 284 285 284 284 284 282 279 278 280 284 288 286 285 286 286 285 285 286 285 284 284 284 284 284 284 284 283 284 283 283 283 284 285 285 284 285 284 284 284 284 285 285 285 286 286 286 286 286 286 286 285 284 284 285 284 284 284 284 284 284 284 283
279 278 278 275 273 273 272 270 269 273 273 276 277 277 279 281 282 280 271 272 281 284 285 285 285 285 285 284 283 281 281 278 280 284 284 286 285 286 285 285 284 284 284 284 284 285 284 283 284 283 284 284 284 283 284 284 284 284 284 284 284 284 283 284 285 286 286 286 286 286 286 286 286 285 285 284 284 284 284 284 284 283 283 283 283 283
275 275 276 272 273 274 274 272 274 275 279 278 277 277 278 281 281 273 271 279 280 281 281 283 283 284 284 282 282 280 283 285 284 284 282 282 283 283 283 283 283 283 283 283 284 286 284 284 284 284 284 285 284 284 284 284 283 284 284 284 284 283 284 285 285 285 286 286 286 286 285 286 286 285 285 285 285 284 284 284 284 283 283 282 283 283
274 274 274 275 272 271 273 271 272 275 280 280 279 280 280 281 272 273 282 281 281 281 282 282 282 283 282 282 282 284 284 282 281 282 283 283 281 282 282 282 282 283 282 283 283 283 283 283 283 283 283 284 284 284 284 284 283 283 283 284 283 284 285 285 284 285 285 285 285 285 285 285 285 285 285 285 285 284 283 284 284 283 283 283 282 282
273 272 270 271 274 274 273 271 270 268 278 284 280 277 280 279 279 285 281 283 282 281 282 282 282 281 283 282 281 282 282 281 281 281 281 281 281 282 282 282 283 282 281 281 282 282 283 283 284 284 285 284 284 284 284 284 283 282 283 283 283 284 285 285 285 285 285 285 285 285 285 285 285 285 285 285 284 284 283 283 283 283 283 282 282 281
279 272 272 273 277 269 270 268 270 278 282 285 281 277 280 285 286 283 283 282 283 282 281 281 280 281 282 282 281 280 280 282 281 281 281 281 280 281 281 281 281 281 281 281 282 282 283 283 284 285 285 285 284 284 284 284 283 282 282 282 284 284 284 284 284 284 284 284 285 285 284 285 285 285 285 284 284 284 283 283 283 283 282 282 281 281
280 276 278 273 278 275 273 276 281 282 284 284 284 284 284 287 288 284 284 283 283 282 282 282 281 281 281 281 280 280 280 282 283 282 282 281 280 280 280 280 281 281 282 282 282 282 283 283 283 284 285 285 285 285 284 284 283 282 282 283 283 284 284 284 284 284 284 284 284 285 285 284 285 285 284 284 284 283 283 282 282 282 282 281 281 281
283 283 283 280 278 281 282 281 282 281 282 284 284 284 282 283 285 285 284 283 283 284 282 282 283 282 281 281 281 280 281 280 281 281 280 280 280 280 280 280 281 280 280 280 280 282 283 283 283 284 284 283 283 284 284 284 284 282 283 283 283 283 283 284 284 284 284 284 284 285 285 284 284 284 284 284 284 283 283 283 282 281 281 281 281 281
283 283 282 279 281 278 273 282 281 282 282 282 284 285 285 284 284 284 285 285 284 283 284 284 282 281 280 280 280 281 280 279 280 280 279 280 280 280 280 281 281 282 282 281 282 281 282 282 283 283 284 284 283 283 284 284 284 284 283 283 283 283 283 283 283 283 284 284 284 285 285 283 283 283 283 283 283 283 283 283 282 282 281 281 281 281
278 285 280 280 281 278 278 282 282 285 284 284 284 284 284 286 285 284 285 285 284 284 283 284 283 281 279 280 280 280 281 280 280 280 280 281 281 282 282 282 282 282 282 282 281 282 282 283 283 283 283 284 284 283 283 284 284 284 284 283 283 283 283 282 282 282 283 284 284 284 284 283 282 282 281 282 283 282 282 282 282 281 281 281 281 281
283 284 277 281 279 282 284 283 281 281 282 284 285 285 286 286 286 287 286 284 283 283 283 283 283 283 282 282 281 280 279 280 280 281 281 282 281 281 282 283 283 282 282 282 281 282 283 283 283 283 283 284 284 283 283 283 283 284 283 284 283 283 283 282 282 282 282 283 284 284 284 283 283 282 281 281 281 282 283 282 282 282 282 283 283 282
282 278 282 281 278 278 279 282 284 279 279 282 284 285 286 287 287 287 286 284 284 283 284 284 284 282 282 283 282 282 281 282 282 282 282 282 282 282 282 282 282 282 282 282 282 281 282 283 283 283 283 283 283 283 283 283 283 283 284 284 284 283 283 282 282 281 281 282 283 284 284 283 283 282 282 282 281 281 282 283 284 284 283 282 283 284
282 282 282 278 278 278 283 285 286 286 285 286 285 286 287 287 287 286 285 284 285 285 286 285 284 284 283 284 284 283 282 283 283 283 282 282 283 284 284 283 283 283 283 282 281 280 281 282 283 283 283 283 283 283 284 283 283 283 284 284 284 283 283 282 282 281 281 281 282 283 283 283 283 283 282 282 282 282 281 282 283 285 285 285 284 284
Wind_Speed
0 3 4 5 6 3 2 2 3 2 2 2 2 3 5 6 9 6 5 3 7 8 9 8 10 17 21 20 18 18 13 11 13 14 13 12 12 11 10 9 10 10 12 6 6 6 6 7 7 6 5 5 4 3 3 3 3 3 4 3 1 0 2 3 4 2 0 4 8 7 8 8 8 7 6 7 8 9 9 11 11 11 10 7 9 11
0 2 7 7 1 4 4 4 3 1 1 0 2 3 6 5 8 5 5 4 4 3 8 7 17 21 18 18 18 15 11 13 13 11 11 12 10 10 11 11 10 11 5 5 6 6 5 6 8 6 6 6 6 4 4 4 4 3 3 3 3 1 1 1 1 4 2 4 2 8 10 9 9 9 9 6 4 6 6 11 11 10 10 9 9 9
2 7 4 2 5 6 4 3 3 0 1 2 3 3 4 6 6 5 2 3 4 5 13 11 15 20 21 21 18 11 10 10 8 7 7 7 7 7 8 10 10 7 7 6 8 7 6 7 7 6 6 6 7 6 6 4 3 4 3 3 3 3 2 1 2 1 1 3 5 4 3 7 5 2 3 6 5 5 6 7 9 8 9 10 9 8
3 6 7 4 3 6 3 3 2 1 2 2 3 3 6 2 4 5 2 5 10 3 9 13 16 19 19 12 12 10 6 5 6 5 5 4 6 6 6 5 5 6 8 8 7 7 7 8 7 6 5 6 5 5 5 5 6 4 4 3 3 4 3 3 2 1 2 4 7 8 7 8 5 3 5 7 7 6 4 5 6 6 8 9 9 10
4 4 3 3 2 3 4 4 3 3 4 6 7 5 5 3 1 1 6 10 8 10 2 8 12 11 5 2 3 4 4 4 4 4 5 5 6 6 6 6 6 6 4 6 6 5 8 8 9 8 7 5 6 6 7 7 6 5 5 4 3 3 4 4 4 3 2 3 8 7 9 8 7 5 6 7 6 6 4 4 5 6 7 7 8 9
12 3 5 4 3 3 3 3 6 4 4 3 6 6 5 2 2 3 5 9 6 2 1 12 10 8 1 3 8 9 1 3 2 4 6 6 6 6 6 6 6 6 6 5 4 5 5 8 7 7 6 7 6 7 6 6 6 5 4 4 4 3 3 4 4 6 6 2 4 9 8 9 6 2 1 9 10 8 8 7 3 5 6 7 8 7
2 3 5 6 4 4 4 4 5 7 5 1 1 2 5 2 1 1 4 6 5 4 2 7 2 11 8 11 7 6 2 6 6 4 6 6 5 4 6 5 5 5 5 5 5 5 5 4 6 8 8 7 7 6 4 4 5 5 5 5 5 4 3 3 3 6 6 5 3 5 10 11 13 13 9 7 6 6 5 7 4 4 4 5 6 7
4 4 3 3 5 5 4 6 5 7 4 4 0 3 2 2 1 1 2 0 6 5 10 7 5 3 10 15 4 4 2 6 4 4 5 7 5 5 4 5 6 5 5 5 6 6 5 5 4 6 7 7 7 5 5 4 4 6 6 7 6 5 5 4 4 5 6 7 7 5 3 5 9 10 10 10 10 8 6 8 7 5 3 4 7 8
2 4 5 5 4 5 6 6 3 10 5 1 1 4 2 1 1 1 0 2 4 5 9 1 5 0 6 10 5 3 4 3 4 5 6 6 5 3 3 4 5 5 5 5 5 5 6 6 5 4 5 5 6 6 6 6 5 5 5 5 5 6 6 6 6 6 6 6 7 7 6 6 3 3 5 6 8 11 10 10 7 6 5 5 6 6
2 1 1 3 5 6 5 1 1 9 6 2 1 2 0 2 1 0 0 1 3 2 6 4 4 2 10 7 5 0 1 3 5 5 8 8 6 4 3 3 3 4 4 4 5 5 5 4 5 4 4 4 6 5 6 5 5 4 4 5 5 5 5 5 6 6 6 6 6 6 5 7 6 5 5 5 9 12 12 10 9 7 4 3 3 5
1 2 3 1 5 1 3 3 4 4 5 4 1 1 2 2 3 1 1 1 1 2 7 4 4 1 6 6 6 1 2 3 2 2 1 3 6 4 1 1 3 4 5 4 3 4 4 4 2 2 2 2 2 5 6 5 6 5 5 5 5 5 5 5 6 6 7 6 6 7 7 7 8 8 9 9 7 6 12 15 11 8 7 5 5 3
1 1 1 3 2 1 3 3 1 2 2 2 1 1 4 0 2 1 0 1 0 5 1 2 1 1 3 9 6 5 4 7 5 5 4 3 2 1 1 2 2 4 5 5 4 3 3 2 2 2 4 4 4 5 5 5 5 5 5 5 5 5 4 4 6 6 7 7 7 6 7 8 7 9 10 12 14 13 12 15 16 12 7 6 6 6
4 9 3 3 3 4 3 3 1 1 3 2 2 0 1 2 1 1 1 1 5 6 1 1 1 3 11 15 10 11 16 14 8 4 4 1 0 1 3 3 2 1 3 4 2 2 2 3 3 3 3 2 4 4 5 6 6 6 7 7 8 7 6 6 6 7 8 8 8 8 8 7 7 9 10 11 11 11 12 11 13 15 13 9 8 8
3 4 2 4 3 5 5 8 4 0 5 5 5 5 3 1 3 4 3 3 1 1 3 2 2 5 7 9 14 18 16 12 9 7 2 2 1 1 2 3 3 2 2 4 4 4 5 5 5 5 6 5 5 4 4 4 4 4 5 7 9 9 9 8 7 8 8 9 9 8 8 8 7 9 9 9 9 10 8 9 15 15 16 16 15 12
3 1 6 9 5 7 10 6 2 1 10 9 1 1 2 1 1 2 1 4 2 1 3 5 1 8 1 4 4 8 4 3 4 2 2 3 3 3 2 1 3 4 5 5 5 5 6 6 5 5 6 6 6 6 6 6 6 5 5 5 6 7 9 10 10 9 10 9 9 9 8 8 8 9 9 9 7 8 9 8 9 12 15 16 15 16
5 3 1 5 2 8 11 7 1 4 5 5 3 2 1 5 0 4 1 0 2 3 2 1 6 3 7 5 12 9 6 4 3 3 4 4 4 4 2 3 4 5 5 6 6 6 6 6 6 5 5 5 6 8 8 8 8 8 8 8 8 9 8 10 11 11 11 10 9 10 11 11 9 7 8 7 6 6 7 6 7 7 8 9 11 12
2 3 1 2 2 2 5 3 2 0 4 4 6 4 3 1 1 2 2 1 1 2 9 4 6 7 6 10 14 8 2 4 3 4 5 5 5 5 5 5 5 5 5 6 6 6 6 5 5 7 7 5 5 5 7 9 9 11 10 9 9 9 8 9 10 10 10 11 11 12 12 11 10 10 11 10 9 8 7 7 7 6 3 2 7 10
4 2 1 2 3 4 2 3 1 3 0 4 2 2 1 1 2 2 1 1 1 4 5 6 6 8 2 9 3 3 4 4 5 5 6 5 6 6 6 6 6 5 5 5 6 6 7 8 8 7 6 7 8 9 8 9 9 10 10 11 11 10 11 10 9 10 9 11 12 12 13 13 13 11 11 10 10 7 7 7 6 5 6 6 4 9
3 1 2 3 1 4 1 1 2 2 1 0 0 1 3 1 1 2 2 3 2 4 4 4 7 9 7 7 0 4 5 6 7 6 6 7 7 6 6 6 5 5 5 5 5 5 5 6 7 8 9 9 10 10 9 9 9 8 7 9 11 12 12 12 10 10 10 10 9 9 13 14 13 11 11 10 10 9 9 9 8 8 9 7 7 7
1 3 0 2 2 3 1 2 6 5 1 0 2 2 0 2 1 6 4 2 1 4 3 5 1 7 5 5 6 7 6 7 7 7 7 7 6 5 5 5 7 5 5 5 4 5 5 5 5 6 8 9 10 9 9 10 8 9 9 9 9 8 8 9 10 10 11 11 9 8 8 11 13 12 12 11 11 11 12 10 8 8 8 9 7 7
2 1 3 1 2 5 3 7 9 12 12 4 2 2 0 1 0 1 2 3 3 2 2 4 7 6 4 6 7 6 5 4 6 9 7 6 6 6 5 4 2 3 4 4 4 5 5 5 5 5 5 5 5 6 6 7 9 9 8 9 9 10 10 10 11 11 11 9 10 9 10 11 12 14 12 12 12 11 11 10 10 9 8 6 8 7
2 4 5 6 4 7 6 6 9 8 12 12 12 10 13 9 3 3 8 3 3 3 4 2 12 10 10 4 9 7 4 1 2 5 4 4 2 1 1 4 3 2 4 4 5 5 5 5 5 5 5 5 5 6 5 6 7 7 8 9 9 9 9 10 10 10 9 9 10 10 10 11 9 10 11 13 13 13 11 11 11 11 8 9 8 8
2 0 4 6 8 10 9 1 2 2 2 6 9 5 9 6 3 4 4 5 1 4 1 0 3 14 2 4 1 3 3 4 4 4 1 1 3 4 5 5 5 5 5 5 5 6 6 6 6 6 6 6 6 6 6 6 6 7 7 7 7 9 10 9 10 9 9 10 10 10 9 8 10 11 11 13 12 13 13 12 11 11 11 9 8 7
5 1 2 1 3 2 3 1 2 2 2 0 5 5 7 12 13 9 3 2 3 2 3 2 3 13 2 2 4 5 5 3 1 2 4 6 5 5 6 5 5 5 6 6 6 5 6 6 5 5 5 6 6 6 7 6 5 5 5 6 6 9 9 9 8 9 9 10 11 11 10 10 10 12 12 13 12 14 15 14 13 12 11 10 9 9
5 5 6 3 2 2 1 0 3 0 0 4 5 10 10 7 7 7 2 1 1 9 6 9 12 9 0 4 2 1 3 3 5 6 5 5 5 6 7 7 5 5 5 5 5 6 6 5 6 6 6 7 6 6 5 5 5 5 5 5 6 6 7 7 8 8 9 10 11 11 12 12 11 12 13 13 11 12 12 12 12 11 13 12 11 10
5 5 10 8 11 9 7 6 7 8 12 6 4 7 12 13 13 8 7 5 7 5 15 10 16 11 1 1 3 6 5 5 5 5 3 5 7 8 4 4 4 4 5 6 6 6 7 7 7 6 6 6 6 6 5 5 4 5 5 6 5 7 6 7 7 9 10 10 11 12 13 12 11 13 14 14 12 11 11 12 13 13 12 13 13 11
2 2 9 11 11 13 5 2 2 8 6 8 12 16 13 13 11 11 1 5 15 5 12 20 21 14 12 14 12 11 5 6 8 10 12 9 5 3 1 2 3 4 5 7 6 7 6 6 7 8 7 7 6 5 5 5 4 4 5 5 5 6 6 7 7 8 9 9 10 10 11 11 11 11 12 12 11 9 9 10 11 14 15 14 14 14
1 3 9 8 11 7 5 2 4 10 7 7 7 13 14 14 15 15 14 13 5 5 19 14 12 14 25 17 14 17 15 13 12 9 8 5 4 5 5 5 7 6 6 5 5 6 7 8 7 7 7 6 6 5 4 4 5 5 5 5 5 6 5 5 6 6 7 8 9 10 10 10 8 9 9 9 9 9 9 9 9 10 9 9 12 14
4 7 6 6 12 10 7 4 6 4 3 4 9 11 14 16 16 19 20 16 10 13 20 6 15 21 23 18 18 15 12 10 10 7 5 6 8 8 8 7 6 6 6 6 7 6 6 6 6 6 5 5 5 5 5 5 4 3 3 3 3 4 6 5 5 6 6 7 8 7 5 5 5 6 8 8 8 9 10 9 9 9 10 12 13 10
1 8 4 8 9 9 10 10 6 5 5 6 8 9 14 17 21 22 21 19 22 22 15 17 17 20 15 17 15 16 7 4 8 9 11 12 12 10 7 7 7 7 7 7 7 6 5 5 5 5 5 5 5 5 5 5 4 4 4 4 4 4 4 2 4 5 6 7 7 5 5 6 5 7 8 9 10 10 9 9 9 9 9 10 10 10
6 5 11 6 6 9 9 7 9 9 8 14 11 13 14 15 18 21 18 18 17 23 21 23 24 26 23 16 19 20 15 12 10 13 14 13 12 11 9 8 7 7 7 6 6 6 5 5 4 4 5 5 5 6 6 5 5 4 4 3 3 3 2 2 3 4 5 6 5 5 6 6 6 7 8 9 9 9 10 10 9 9 10 9 9 11
7 3 2 5 7 10 6 9 10 9 10 15 18 18 18 18 19 16 18 14 15 22 18 19 20 24 23 12 13 17 18 16 16 14 11 9 7 8 9 9 7 6 6 7 6 5 5 5 4 5 5 5 5 5 5 5 4 4 3 3 3 3 2 3 3 4 4 4 5 5 6 7 7 8 9 8 9 9 9 9 10 10 10 10 10 9
9 6 5 5 7 9 5 9 6 4 6 12 25 23 20 20 18 11 17 15 22 19 17 18 24 20 17 10 10 14 14 14 12 11 9 7 7 9 9 7 6 6 7 6 6 5 5 4 4 4 5 5 5 5 5 5 4 4 4 3 3 2 3 4 4 4 4 4 5 5 6 7 9 9 9 9 9 9 9 10 10 10 10 12 11 10
7 9 7 5 6 1 4 5 3 2 10 22 1 14 21 23 20 21 22 22 23 16 19 18 22 15 13 13 15 19 16 15 12 10 9 10 8 6 6 6 6 6 7 6 5 5 5 3 3 3 4 5 5 5 4 5 4 4 4 4 3 4 4 4 3 4 4 4 5 6 7 6 8 8 7 8 9 9 10 10 11 10 9 9 9 10
12 11 8 5 5 4 2 4 2 9 23 1 2 9 18 21 21 26 26 23 20 20 24 23 24 20 22 19 18 18 18 18 11 10 9 6 5 6 7 8 7 8 8 7 5 5 4 3 3 4 4 5 5 4 4 4 4 3 3 4 4 4 5 5 5 4 4 5 5 6 7 7 8 8 8 8 9 10 10 10 9 9 9 9 11 12
12 12 7 5 5 3 3 8 6 17 3 2 2 2 5 11 14 15 18 18 19 20 21 22 24 24 22 22 20 18 18 17 11 11 12 10 8 8 8 10 10 8 7 6 6 5 4 4 5 5 6 5 5 5 5 4 3 4 4 3 5 5 6 6 6 6 5 5 6 7 8 9 8 8 8 9 9 10 10 10 10 11 9 8 7 7
16 10 9 8 8 8 7 10 18 10 20 18 6 3 6 7 6 12 12 14 17 20 18 18 20 20 21 22 21 17 14 7 8 14 12 10 10 9 11 12 10 8 6 5 5 4 3 3 4 5 4 5 6 6 6 5 4 4 4 5 5 6 6 6 7 8 7 6 6 7 7 9 9 9 9 10 10 10 10 10 10 9 8 9 9 9
13 15 10 10 8 10 6 8 6 6 15 13 7 6 13 7 5 5 2 18 9 15 15 18 21 23 23 20 16 13 4 5 11 14 14 6 10 11 10 10 7 6 4 3 2 2 3 3 2 3 5 6 6 6 5 6 6 5 5 6 6 6 7 7 8 7 7 7 6 6 6 7 8 10 10 10 12 11 10 9 8 9 9 10 10 10
10 12 11 14 7 9 10 11 11 12 14 5 7 11 8 7 7 4 0 18 6 18 19 21 22 20 19 15 12 3 4 7 12 14 13 4 6 8 8 7 5 4 3 3 4 4 4 4 5 4 4 6 7 6 6 6 7 7 7 6 7 7 8 9 8 7 7 7 6 6 6 7 8 8 9 9 9 9 10 11 10 9 9 9 9 9
12 11 8 11 11 11 11 9 16 9 9 2 6 4 9 8 9 4 5 8 4 11 12 11 16 18 16 9 7 9 11 9 12 14 6 8 7 7 8 7 4 4 3 4 3 4 4 4 4 4 5 7 8 7 8 7 7 8 8 7 7 8 9 9 8 7 7 7 7 7 7 7 8 9 9 10 9 8 8 8 8 10 10 9 8 9
13 9 13 17 14 13 13 12 8 10 4 4 4 5 6 7 6 5 16 12 3 3 5 8 12 13 10 7 8 9 12 14 6 2 2 1 7 3 3 3 4 5 5 5 6 6 5 5 7 8 8 7 6 7 8 8 8 9 9 8 8 11 10 7 6 6 7 7 7 8 8 8 8 9 9 9 9 8 8 8 8 9 10 10 8 9
10 9 6 8 12 15 16 14 13 11 4 9 8 14 7 6 4 16 10 6 8 5 5 7 9 8 7 7 8 11 8 5 2 1 1 1 5 6 5 5 4 2 2 2 5 5 5 6 6 6 6 6 7 8 8 9 9 9 9 9 11 11 7 6 7 7 7 7 8 7 8 8 8 8 8 8 8 9 9 8 8 9 10 9 9 11
17 13 14 15 9 4 3 10 6 12 8 23 13 6 6 8 11 11 3 1 4 6 6 4 5 5 6 5 6 6 2 4 6 6 5 4 3 4 5 5 5 6 6 4 4 5 6 5 8 9 9 7 8 8 9 10 10 9 9 12 12 7 7 7 7 8 8 8 8 8 9 9 10 9 7 8 9 9 9 8 9 9 9 10 10 11
14 10 8 10 12 11 15 13 13 13 9 20 21 17 17 22 10 5 3 2 1 5 5 4 5 5 6 6 6 5 5 3 5 5 5 4 5 4 3 5 5 4 4 6 7 8 8 8 7 7 7 7 8 8 9 11 11 10 11 13 8 7 7 7 7 8 8 8 8 8 8 9 10 9 8 9 10 10 10 10 10 9 9 10 10 10
14 17 18 16 17 12 15 19 10 8 14 15 21 8 17 25 16 1 2 4 5 3 3 5 5 5 5 7 4 6 4 7 8 7 6 7 5 5 5 4 5 5 6 6 8 7 7 10 9 7 6 8 9 9 10 10 12 11 13 10 7 9 9 8 8 8 8 8 8 9 7 8 9 10 9 9 10 10 10 10 10 9 9 9 9 10
18 21 6 1 7 13 12 5 2 4 2 9 12 7 5 6 9 7 5 4 2 2 2 3 2 4 5 4 4 3 6 6 7 6 5 4 4 3 3 3 4 5 5 5 5 5 7 6 5 5 7 7 8 9 9 10 11 14 14 7 8 9 9 9 9 9 9 8 8 9 8 9 10 11 11 10 8 10 9 10 10 9 9 9 10 9
8 16 14 10 3 11 11 16 19 13 9 6 13 12 9 6 7 8 10 11 7 5 3 1 1 2 5 6 5 6 6 5 4 4 4 3 2 4 5 6 6 7 7 6 8 5 5 5 6 7 8 9 8 10 9 10 11 12 6 8 9 9 9 10 10 10 9 9 9 9 9 10 9 10 11 13 11 9 8 9 9 10 10 10 10 11
11 13 15 17 11 13 13 11 14 20 15 9 10 10 13 13 8 7 10 9 6 5 5 5 3 4 4 5 7 6 8 6 5 5 5 5 6 6 6 6 7 6 7 7 6 6 6 7 8 9 8 10 9 9 9 10 11 10 8 8 9 10 10 10 11 11 10 10 9 8 9 9 11 11 9 11 13 12 11 10 11 11 12 12 12 12
8 15 10 13 15 14 14 8 5 6 7 16 19 15 14 12 15 15 14 8 5 7 8 7 6 7 6 8 6 6 5 7 7 8 8 7 6 5 7 8 7 8 7 6 5 6 9 8 8 9 9 10 7 8 9 11 10 9 10 9 9 10 11 11 11 11 10 10 9 9 9 9 9 9 9 9 10 11 13 15 15 14 12 12 12 12
7 13 10 9 10 11 13 17 13 7 10 15 17 18 19 16 14 18 13 6 7 9 11 11 10 7 7 7 6 6 7 8 8 7 9 8 8 7 8 7 7 7 7 7 5 6 7 7 9 9 9 10 6 7 9 10 10 10 10 9 10 11 12 11 11 11 11 10 10 10 10 9 9 9 9 9 9 9 8 9 12 12 13 13 17 21
14 14 13 14 14 15 17 20 13 15 19 12 8 14 17 15 15 17 13 11 13 14 16 14 14 10 8 10 9 8 9 9 12 9 8 6 9 9 8 7 7 7 7 6 5 5 6 7 8 8 8 9 6 7 9 9 9 10 10 11 11 12 12 11 11 10 10 11 11 11 10 10 10 10 9 9 9 8 8 7 9 14 15 12 13 17
Wind_Direction
33 218 207 209 237 182 118 97 67 69 50 338 288 265 261 274 279 278 270 303 38 331 267 267 271 277 282 281 285 289 293 278 269 267 265 262 258 261 257 246 240 240 241 236 228 217 197 163 150 155 159 165 173 180 174 179 203 229 203 151 222 323 10 350 345 323 272 199 148 149 156 160 159 155 154 149 162 165 163 159 161 161 162 163 159 160
267 221 241 239 196 121 119 100 102 126 42 344 303 286 276 253 276 275 286 40 36 46 285 296 288 281 279 284 282 286 289 273 265 261 260 260 258 251 254 258 247 241 248 248 245 235 188 153 154 159 166 164 169 196 190 202 200 196 210 184 175 121 50 32 336 303 145 351 208 169 168 158 157 150 159 152 139 151 138 159 165 164 160 156 161 157
201 224 252 191 105 104 106 100 97 15 252 219 223 262 291 270 260 278 53 49 25 335 284 304 300 290 289 284 285 276 261 258 256 248 253 265 265 254 249 251 252 238 232 227 235 224 187 168 166 165 179 192 184 176 188 200 187 186 202 202 172 160 128 82 6 318 265 114 32 22 119 144 133 59 109 130 101 87 124 143 153 153 152 159 158 156
258 243 199 130 124 115 98 135 113 194 195 231 243 235 233 281 45 307 244 10 329 316 283 311 301 290 286 281 266 260 239 246 244 244 267 266 273 273 266 260 257 241 219 221 228 219 179 174 175 174 185 197 187 172 175 183 192 189 195 198 172 172 158 127 94 47 353 99 106 79 58 48 36 134 106 92 94 105 113 127 134 135 152 161 160 158
204 113 96 117 148 154 157 146 181 177 249 207 210 241 262 304 189 184 297 321 297 271 259 299 298 285 257 276 317 278 234 243 276 288 282 268 255 259 275 286 287 294 267 225 228 224 175 182 183 189 193 182 189 190 187 184 188 192 189 185 172 176 182 148 123 102 88 116 96 94 86 71 58 31 96 100 98 116 107 105 136 147 144 148 154 157
267 238 117 134 164 160 196 188 186 202 263 261 211 211 232 93 64 353 319 326 329 341 128 30 347 304 285 286 296 288 306 285 275 289 276 263 249 229 237 243 257 262 271 269 241 232 206 186 179 183 183 182 195 204 199 181 182 172 172 164 159 163 177 159 139 134 134 182 157 144 139 139 128 86 89 155 157 153 147 146 104 122 149 157 155 156
223 113 160 167 175 180 197 216 205 176 228 295 222 18 68 79 78 287 323 12 312 322 292 31 141 281 312 296 279 283 243 268 300 258 264 270 243 219 210 217 216 223 250 261 273 274 270 240 176 184 188 188 194 207 187 173 170 167 166 165 162 163 163 152 144 147 151 156 192 199 179 171 170 166 176 143 115 132 121 116 118 96 109 145 151 143
122 180 171 200 178 189 189 222 226 195 174 237 350 41 41 20 329 348 10 183 255 287 287 242 183 250 305 297 262 224 260 286 305 291 273 262 240 210 214 205 195 205 211 216 227 246 250 257 224 197 191 189 193 182 165 173 169 171 172 167 166 163 157 152 150 159 165 167 173 190 214 193 182 178 165 157 140 127 123 125 128 117 100 134 144 138
136 158 172 178 194 189 215 221 192 186 185 162 146 68 2 52 316 310 356 286 275 310 310 86 149 295 251 267 300 293 296 326 280 260 254 250 241 213 223 210 188 182 189 193 216 225 230 233 245 221 199 191 175 163 168 171 178 175 173 164 158 158 158 158 160 164 172 175 175 180 175 183 197 139 133 136 135 135 140 134 137 144 157 153 139 137
352 97 176 206 179 213 218 155 173 157 210 103 204 113 287 266 275 179 254 299 309 16 270 177 193 194 281 268 308 356 114 274 258 251 238 230 239 240 254 246 172 168 173 186 201 214 230 236 236 231 209 182 177 165 160 157 152 165 164 165 166 170 166 160 165 171 172 173 164 171 186 182 168 138 126 150 154 150 145 141 147 137 141 147 146 147
210 295 218 218 206 215 84 47 20 62 74 171 60 343 298 218 183 116 177 265 321 259 247 156 181 130 298 268 233 210 211 194 258 267 240 225 231 246 252 237 175 168 165 183 215 219 222 220 217 206 219 222 156 154 147 152 160 161 168 170 175 189 170 161 169 176 184 181 180 180 184 189 175 160 160 157 168 176 157 151 151 151 160 167 159 148
352 106 11 241 220 87 148 90 49 70 80 89 47 42 316 54 76 105 236 137 96 270 209 260 190 166 192 289 271 223 269 319 315 287 267 245 230 228 186 243 220 178 168 175 191 216 223 223 227 200 220 214 192 148 154 160 158 165 172 170 180 189 183 173 168 179 193 190 194 190 185 191 186 171 175 178 174 181 185 163 152 149 149 170 156 153
228 215 173 20 298 181 165 105 132 143 120 137 112 352 89 245 85 291 78 327 203 224 201 233 151 344 227 237 261 297 289 287 276 248 241 223 174 185 199 202 202 97 109 139 156 187 197 206 215 223 238 233 224 188 177 176 173 173 177 180 183 192 183 186 178 188 196 194 198 198 193 193 181 186 187 186 187 190 183 177 159 156 162 163 170 173
249 12 202 187 57 229 185 166 161 290 191 155 166 166 149 225 222 261 225 219 205 356 271 197 228 245 276 277 232 243 255 251 251 239 199 131 162 153 160 140 140 163 171 183 192 195 207 206 210 201 201 202 211 216 188 188 186 191 193 191 190 196 183 184 185 188 196 205 199 196 199 194 181 192 193 200 194 195 206 193 177 173 169 169 178 172
241 288 232 160 227 160 196 200 156 197 156 190 178 154 208 203 178 235 204 224 236 256 181 255 77 246 53 248 208 201 221 232 198 189 119 111 115 127 126 157 184 192 203 193 196 196 204 209 206 208 202 196 194 197 189 182 190 186 202 207 211 204 194 188 189 186 193 199 200 198 198 199 190 191 196 204 201 197 202 207 217 191 177 177 174 176
220 218 330 144 350 158 182 203 123 123 125 174 179 56 56 225 328 197 122 209 307 344 318 210 209 237 206 285 296 292 279 225 198 150 130 143 137 132 163 201 219 212 199 193 192 201 204 201 199 200 211 211 200 198 195 190 186 189 198 198 204 211 211 200 193 195 192 192 194 199 198 199 195 187 192 202 200 198 200 206 201 220 209 192 172 163
44 251 158 105 290 178 201 203 227 233 166 201 111 200 197 309 77 357 359 84 86 99 251 167 270 272 266 276 265 266 236 218 171 182 157 166 168 157 191 206 212 207 199 179 191 197 205 203 202 196 195 208 224 217 203 198 191 192 194 197 204 207 207 207 208 205 192 188 191 199 200 195 193 192 192 195 199 194 195 196 201 198 232 270 171 155
163 192 294 166 208 261 352 336 69 44 145 100 185 207 157 85 103 125 215 312 247 231 271 165 234 285 17 298 0 102 168 225 200 199 185 185 175 179 201 200 203 208 210 208 196 197 195 193 199 203 206 204 205 208 212 208 201 197 194 193 199 202 206 208 200 205 204 198 196 196 198 198 195 194 194 189 189 187 190 194 189 182 176 192 221 167
96 293 194 261 294 109 28 24 8 293 115 71 200 273 106 202 233 253 97 276 216 242 270 245 235 249 191 254 160 234 205 216 209 204 190 195 192 200 201 210 208 205 210 211 218 212 203 196 197 201 204 210 210 209 210 211 204 201 200 200 198 202 204 203 200 199 202 204 208 202 198 195 194 193 192 189 181 173 186 194 192 190 186 174 182 185
77 175 10 273 186 137 75 158 201 193 78 133 309 313 198 55 224 147 205 220 97 265 351 283 177 266 185 213 203 229 218 198 196 194 194 197 192 197 204 206 209 211 208 208 211 211 210 214 210 205 208 213 213 212 211 210 206 203 202 202 209 211 203 199 203 201 202 201 202 207 204 202 197 191 188 184 179 181 184 186 187 185 181 184 180 194
210 129 233 140 234 134 190 195 213 169 172 195 147 246 119 209 71 67 308 172 171 220 208 297 297 256 217 214 206 215 213 208 179 186 192 189 187 186 178 178 201 230 231 230 228 232 233 235 236 238 237 228 224 220 214 212 208 209 199 201 201 205 207 204 203 200 207 195 200 196 199 202 200 194 186 182 182 184 185 178 176 184 181 162 185 190
177 184 179 125 174 218 241 183 206 180 185 179 174 198 184 155 157 162 260 147 238 126 236 197 263 287 264 259 265 274 287 330 78 111 111 104 108 151 236 276 265 250 243 233 234 232 234 239 240 239 240 249 254 257 243 216 211 207 202 201 202 205 211 209 205 202 199 194 198 199 199 199 201 200 191 185 184 184 182 181 180 172 163 179 181 182
153 200 130 185 202 207 220 30 158 38 190 198 173 204 175 192 150 160 215 239 106 253 36 229 23 269 235 176 137 125 93 103 100 88 85 149 219 228 253 254 249 235 234 236 239 242 242 236 233 228 230 236 237 240 241 240 214 212 210 205 206 205 215 208 207 202 195 193 195 200 198 192 197 197 197 193 188 187 184 181 177 167 170 174 172 176
74 158 191 211 137 7 64 33 21 2 72 196 225 205 169 197 197 203 184 127 185 166 175 213 203 255 77 63 149 138 135 122 105 172 200 233 246 254 254 256 251 256 254 246 245 246 241 241 240 240 247 247 246 243 241 232 223 220 221 220 216 217 215 209 207 201 197 196 196 192 188 192 194 196 197 199 197 191 186 180 174 171 170 169 166 171
131 226 144 164 167 154 271 329 302 218 350 226 198 203 209 198 207 231 327 105 244 198 182 154 233 263 23 203 172 173 138 198 203 228 211 236 260 254 245 243 231 226 236 248 254 252 255 252 244 237 234 236 237 234 228 229 234 240 247 243 237 237 221 212 205 199 200 195 195 192 193 192 189 193 198 202 200 197 186 177 173 171 171 165 169 172
181 167 160 192 206 218 206 195 205 196 212 216 230 211 205 199 192 173 224 187 234 195 189 214 246 233 281 204 175 191 190 220 227 222 261 310 297 275 245 224 232 233 237 244 250 259 255 244 242 243 238 238 237 223 218 224 232 244 251 248 245 245 232 220 203 200 199 196 193 195 196 194 189 192 195 200 200 195 186 183 173 173 174 170 170 169
190 206 196 200 204 225 239 183 297 115 107 186 207 202 203 205 201 201 180 187 216 202 215 224 235 267 261 252 267 268 265 273 287 296 302 297 279 275 266 252 247 250 253 250 245 245 250 252 243 239 237 234 230 212 206 213 228 238 244 249 248 247 233 221 205 201 200 197 194 194 199 195 193 193 193 195 195 188 184 185 185 176 173 173 169 171
180 230 222 222 233 229 130 185 164 143 175 204 173 201 203 196 199 203 200 222 157 229 253 232 238 249 256 253 251 260 265 267 269 276 276 267 283 291 279 273 271 271 266 263 260 255 249 247 243 236 235 235 227 208 207 210 213 221 230 243 251 256 251 227 205 201 196 191 195 197 199 197 189 188 189 189 184 181 183 184 186 178 171 162 168 174
185 218 215 203 238 241 227 144 164 186 194 193 193 190 197 201 201 209 221 224 200 212 239 102 207 234 249 255 254 248 247 257 263 263 268 280 285 288 286 274 266 261 266 264 258 253 252 252 241 233 235 232 212 209 214 218 234 248 266 270 279 278 255 234 206 197 187 187 192 197 187 171 167 177 180 176 174 176 178 180 177 178 176 176 175 174
109 246 191 207 242 231 244 243 216 211 219 229 222 206 198 199 208 212 220 218 220 236 246 261 262 255 251 255 262 264 265 261 283 290 292 287 283 278 272 265 256 255 254 257 261 265 262 255 241 232 236 224 207 211 212 218 220 224 234 256 267 269 279 175 199 182 180 183 185 169 163 163 163 173 178 175 177 179 176 174 172 170 173 178 170 168
177 244 175 201 238 242 232 245 255 254 245 250 231 222 217 212 216 218 222 223 229 249 247 256 260 266 255 251 268 277 281 279 274 270 269 270 274 272 266 258 247 243 254 259 268 271 268 262 246 243 237 228 212 207 209 210 210 210 223 244 257 251 245 182 187 183 174 178 163 158 155 161 169 170 180 181 174 175 174 172 170 170 172 173 169 165
183 269 65 185 223 249 205 227 238 246 255 253 250 233 222 219 227 213 223 210 217 235 235 245 255 253 261 249 257 268 272 268 265 262 256 250 243 244 250 248 238 245 260 268 269 268 272 262 249 245 241 230 214 208 207 209 205 196 206 213 229 232 219 194 187 188 180 163 155 157 164 170 172 177 181 171 176 176 176 170 169 170 170 169 168 163
191 176 173 178 211 246 185 197 212 220 275 276 245 225 218 225 225 224 233 219 222 223 235 232 241 246 263 264 256 258 251 258 260 255 260 251 236 234 230 227 234 249 259 264 266 267 259 248 234 236 237 216 207 206 212 197 192 199 187 195 202 173 189 205 189 187 185 168 156 163 164 170 177 182 174 173 173 173 167 170 172 172 172 175 172 168
181 193 194 166 214 138 113 113 120 141 249 243 305 170 196 215 212 221 228 221 228 209 232 230 248 256 259 255 247 255 259 249 252 256 236 243 239 239 236 231 237 244 259 257 246 241 240 215 211 219 212 202 198 194 202 190 189 188 175 178 167 171 191 199 206 187 187 172 163 160 166 164 170 175 170 169 167 166 167 172 178 175 171 167 168 169
182 188 203 168 208 191 176 123 99 233 240 24 171 175 190 205 207 218 229 226 230 228 239 248 253 254 252 252 253 256 261 268 262 265 264 246 244 249 257 260 255 254 253 251 246 237 220 206 211 207 194 186 183 189 178 193 178 169 171 168 168 177 187 202 200 204 190 185 173 162 167 172 174 178 168 171 167 166 168 170 168 167 168 171 175 176
181 184 178 205 172 65 144 186 198 234 337 291 279 179 198 196 209 223 243 237 233 231 232 240 245 249 252 257 257 254 259 265 276 263 253 250 229 231 248 254 256 244 244 231 215 213 200 202 205 205 210 187 165 177 172 187 175 175 194 177 173 182 196 200 203 201 194 191 183 177 174 177 179 172 162 165 166 167 168 169 170 170 168 168 172 174
170 174 178 200 181 199 195 195 232 319 323 279 241 198 160 175 186 192 236 237 219 231 229 237 248 247 248 247 249 256 256 275 274 272 248 229 237 220 220 240 235 230 222 211 182 196 188 183 185 199 178 172 174 172 177 170 169 185 193 187 191 186 198 201 203 198 191 185 182 183 180 179 171 168 167 167 169 172 170 167 165 164 161 166 175 176
172 179 184 179 213 199 187 221 251 254 249 270 181 172 186 197 153 176 186 272 190 228 211 227 235 240 241 242 243 246 261 262 269 265 261 210 227 232 223 222 221 209 190 159 130 140 150 167 168 182 167 176 180 181 171 165 168 185 204 199 196 197 201 207 207 198 191 186 179 182 179 181 174 170 174 177 178 175 170 166 163 165 168 173 173 181
197 185 179 192 195 165 215 223 224 230 241 121 169 171 171 151 141 111 222 273 206 218 212 213 228 239 241 239 239 170 124 229 252 258 263 223 219 207 189 203 187 181 176 179 183 190 185 189 181 193 170 173 187 190 170 170 170 183 206 202 203 201 207 210 208 198 190 181 171 178 182 182 178 175 175 180 182 175 172 174 173 167 168 173 173 174
186 193 181 208 211 201 198 210 235 216 262 180 145 149 145 144 126 108 286 272 262 205 222 200 227 237 246 231 192 167 187 217 236 251 251 227 197 182 156 162 162 173 186 170 168 170 176 168 155 185 190 197 201 179 172 172 178 189 200 209 202 209 213 209 204 195 184 178 172 172 182 188 186 181 179 179 174 176 175 169 165 170 171 171 170 169
187 191 197 206 208 208 202 235 274 273 210 126 169 156 149 144 125 144 237 219 223 184 191 178 216 226 230 218 167 198 211 213 211 227 337 25 114 104 108 134 170 175 186 186 193 166 163 174 181 196 204 207 193 179 176 173 183 197 199 203 208 217 214 203 195 193 187 180 175 172 180 186 188 182 180 177 174 170 171 174 174 169 171 170 169 168
196 187 214 208 210 206 211 221 236 272 221 137 191 156 165 105 175 227 239 136 157 188 207 175 191 213 194 199 187 212 221 199 182 172 185 238 158 156 166 174 176 204 221 191 178 171 184 184 195 203 212 207 190 182 178 178 191 199 198 202 216 216 203 193 192 192 192 186 182 175 170 180 186 181 177 175 170 173 176 177 175 176 174 172 171 173
182 176 191 199 202 207 207 223 240 260 206 156 169 138 201 173 237 227 96 76 132 173 170 188 166 209 163 212 215 211 181 186 178 191 198 204 158 173 177 177 186 202 218 200 209 208 181 201 209 208 205 196 192 182 185 181 196 200 200 210 213 198 192 193 189 191 196 192 187 183 174 173 183 184 177 176 174 174 178 175 177 177 176 173 173 175
171 186 193 224 188 181 195 197 210 223 123 171 151 179 190 204 209 105 153 226 241 152 178 162 206 191 184 180 209 209 201 185 246 240 224 221 212 225 198 207 213 209 220 213 209 204 188 212 218 219 205 193 190 186 184 186 198 202 207 216 195 179 185 189 192 190 195 198 194 187 181 175 176 184 179 175 174 178 176 177 180 179 181 178 176 177
179 201 189 200 189 187 195 210 203 96 176 182 187 194 187 201 212 133 118 161 177 223 176 148 202 211 169 187 184 190 195 212 217 212 201 217 210 210 207 214 207 216 222 229 233 205 187 206 216 211 207 199 193 192 190 192 197 203 215 212 175 183 181 185 188 193 196 197 195 192 185 175 176 176 177 176 173 177 179 179 179 181 183 180 184 184
192 207 187 351 215 227 262 295 340 298 235 210 220 210 219 250 257 263 250 259 233 184 151 147 173 174 188 162 168 199 201 225 218 228 222 229 212 236 234 258 260 249 246 240 245 201 201 206 209 204 213 213 199 198 198 198 196 207 217 186 181 180 178 178 187 194 199 195 193 192 183 177 177 176 170 174 181 181 179 178 181 184 182 186 189 190
211 195 210 226 161 159 238 227 236 233 228 210 220 234 247 230 226 230 242 236 241 248 245 183 162 170 171 175 173 201 229 223 216 226 223 224 227 238 241 244 253 247 248 243 234 201 195 190 205 215 215 220 209 202 204 204 208 216 195 185 181 176 175 178 184 193 196 197 192 191 189 183 181 179 178 173 175 179 180 184 185 188 188 189 190 191
233 192 201 214 199 195 229 218 207 229 225 220 222 220 232 240 250 244 236 237 214 239 240 227 208 223 169 178 196 194 223 225 217 240 249 238 231 238 245 246 250 266 254 234 236 202 201 197 208 217 215 226 216 201 203 207 214 209 195 187 179 176 175 180 183 189 194 195 195 193 190 189 184 181 181 182 177 178 183 187 188 192 195 192 193 191
184 157 208 186 213 222 245 251 186 223 223 225 227 222 220 215 225 236 231 225 210 227 244 242 209 219 201 224 208 204 216 232 221 229 239 246 243 246 249 249 250 246 254 253 235 196 202 205 211 218 216 231 215 195 201 210 211 203 197 189 181 176 180 183 183 185 190 192 193 197 192 191 189 189 187 189 195 198 191 185 187 194 195 195 190 194
132 191 186 188 218 221 217 231 212 226 239 229 222 219 224 221 222 236 239 224 232 239 241 241 243 224 221 227 218 210 220 235 239 234 237 236 241 246 251 249 250 250 252 247 232 205 212 207 209 216 221 234 210 195 204 211 207 201 197 187 184 180 184 182 179 183 189 191 194 195 192 195 192 191 194 194 196 196 209 220 211 199 191 193 199 200
195 186 181 202 201 216 217 230 213 217 239 231 177 212 219 220 221 232 231 219 225 229 237 240 248 249 238 241 222 211 225 231 242 239 241 241 244 240 238 238 246 250 248 249 243 236 217 222 219 223 228 233 214 206 208 210 204 198 196 189 187 184 185 177 180 186 189 190 197 193 194 194 195 194 194 195 195 197 201 201 214 217 214 209 200 203